Showing default

IRIDIUM 132, 42961

Orbit data source: Space-Track

IRIDIUM 132, 42961 is a payload satellite owned by Iridium (US) in LEO that was launched on Mon, 09 Oct 2017 UTC via an FALCON 9 launch vehicle from the Air Force Western Test Range (AFWTR). Payloads include a variety of satellites, spacecraft, and rockets equipped with specific instruments for various scientific and technological missions. These include communications satellites like Starlink; space stations such as the ISS; scientific satellites like the Hubble; Earth observation satellites from companies like Planet Labs, Umbra, and HawkEye 360; GPS; miniature CubeSats for education and research; and military/defense satellites.

Loading next visibility...
IRIDIUM 132 details
Identifier
42961, 2017-061G
Orbit
LEO
Last TLE update11 hours ago
Origin
Flag of USIridium (US)
ManufacturerOATK SSG Gilbert
MissionOperational Commercial Communications
Bus & MotorELITEBUS, Unknown motor
Mass860 kg wet, 700 kg dry
Launch date (UTC)
2017-10-09 (7 years ago)
Launch vehicle
FALCON 9
Launch site
Air Force Western Test Range (AFWTR)
Object type
Payload
Rocket body
Debris
Shape & HBRTrap Box + 2 Pan, 9.4 m
Radar Cross Section14.423 m², Large (>1 m²)

Expand to show TLE details & history

TLE from 11 hours ago
0 IRIDIUM 132
1 42961U 17061G   24361.44609469  .00000569  00000-0  19595-3 0  9997
2 42961  86.3967 249.9214 0001781  86.6829 273.4571 14.34219405377740
Epoch: 2024-12-26T10:42Z
Definitive object data (Epoch: 2024-12-26T10:42:22.581Z)
Latitude0.00004°
Longitude-6.09806°
Altitude780.636 km
Speed7.464 km/s
True Right ascension16h 39m 41s
True Declination0° 00' 00"
Sunlit
Object was in daylight at TLE epoch
Visualization TLE readout
Latitude5.81962°
Longitude173.3471°
Altitude780.119 km
Speed7.464 km/s
Apparent Right ascension06h 20m 18s
Apparent Declination-18° 08' 55"
Sunlit
Object is in full shadow
Visualization observer readout
Local Sidereal Time20:56:43
Azimuth68.651° E
Elevation-49.947°
Doppler factor1
Orbital elements
Apogee altitude775.9 km
Perigee altitude773.352 km
Semi-major axis7,152.763 km
Eccentricity0.0001781
Inclination86.3967°
RAAN249.9214°
Arg. of periapsis86.6829°
True anomaly273.43673°
Mean anomaly273.4571°
Eccentric anomaly273.44691°
Mean motion3.58783 °/min
BSTAR0.00019595
Orbital period100.34 mins
Loading maneuver chart data...
Loading historical data...
Loading historical data...
Loading historical data...
Loading historical data...
Loading historical data...
Loading historical data...
Loading historical data...

IRIDIUM 132 Visibility forecast

Observer location: undefined°, undefined

Span
Click to sort rows by Start time (UTC) header in descending order
Start Az.
Max El. time (UTC)
Max El. Az.
Max El.
End time (UTC)
End Az.
8 mins2024-12-27 04:01:42.808Z24.632° NE2024-12-27 04:05:42.808Z78.747° E23.779°2024-12-27 04:09:42.808Z133.244° SE
7 mins2024-12-27 05:43:42.808Z324.522° NNW2024-12-27 05:46:42.808Z269.219° W28.655°2024-12-27 05:50:42.808Z214.597° SW
8 mins2024-12-27 16:58:42.808Z158.147° S2024-12-27 17:01:42.808Z97.676° ESE39.485°2024-12-27 17:06:42.808Z12.087° NNE
4 mins2024-12-27 18:41:42.808Z267.759° W2024-12-27 18:42:42.808Z281.073° WNW15.378°2024-12-27 18:45:42.808Z318.515° NNW
|